^^
Datos históricos de la estación: Murcia-Puente Tocinos
Diario Informe para Abril 5, 2019 Unidades:  Métrico    Inglés   Ambas
Diario Semanal Mensual Anual Configurable
  Máximo: Mínimo: Media:
Temperatura: 19.6 °C 10.6 °C 13.9 °C
Punto de rocio: 9.7 °C 3.9 °C 7.5 °C
Humedad: 81% 36% 67%
Velocidad viento: 27.4km/h 0.0km/h 7.4km/h
Racha viento: 46.3km/h - -
Viento- - South
Presión: 1003.0 hPa 998.0 hPa -
Precipitación: 2.3 mm    
Historical Graphs
 
 
Tabla de datos para Abril 5, 2019
Hora Temperatura Punto de rocio Presión Viento Velocidad viento Racha viento Humedad Intensidad lluvia(por hora) Nubes
00:00 14.6 °C 7.1 °C 1003.0 hPa South 4.8 km/h 14.5 km/h 61% 0.0 mm CLR
00:05 14.5 °C 7.3 °C 1003.0 hPa SSW 5.0 km/h 7.4 km/h 62% 0.0 mm CLR
00:10 14.5 °C 7.3 °C 1003.0 hPa ESE 6.4 km/h 7.4 km/h 62% 0.0 mm CLR
00:15 14.6 °C 7.4 °C 1003.0 hPa ESE 6.4 km/h 5.6 km/h 62% 0.0 mm CLR
00:20 14.6 °C 7.4 °C 1003.0 hPa ESE 3.9 km/h 7.4 km/h 62% 0.0 mm CLR
00:25 14.5 °C 7.3 °C 1003.0 hPa SE 3.9 km/h 9.3 km/h 62% 0.0 mm CLR
00:30 14.5 °C 7.3 °C 1003.0 hPa East 5.8 km/h 3.9 km/h 62% 0.0 mm CLR
00:35 14.5 °C 7.6 °C 1003.0 hPa East 5.8 km/h 9.3 km/h 63% 0.0 mm CLR
00:40 14.5 °C 7.6 °C 1003.0 hPa West 3.2 km/h 3.7 km/h 63% 0.0 mm CLR
00:45 14.5 °C 7.6 °C 1003.0 hPa SE 3.2 km/h 7.4 km/h 63% 0.0 mm CLR
00:50 14.6 °C 7.6 °C 1002.9 hPa SE 2.3 km/h 5.6 km/h 63% 0.0 mm CLR
00:55 14.6 °C 7.6 °C 1002.9 hPa SE 2.3 km/h 5.8 km/h 63% 0.0 mm CLR
01:00 14.5 °C 7.6 °C 1002.9 hPa SE 3.2 km/h 8.0 km/h 63% 0.0 mm CLR
01:05 14.4 °C 7.4 °C 1002.8 hPa ESE 2.9 km/h 6.4 km/h 63% 0.0 mm CLR
01:10 14.4 °C 7.4 °C 1002.8 hPa East 3.9 km/h 3.7 km/h 63% 0.0 mm CLR
01:15 14.4 °C 7.7 °C 1002.8 hPa SSE 3.9 km/h 5.6 km/h 64% 0.0 mm CLR
01:20 14.4 °C 7.7 °C 1002.9 hPa SSE 3.2 km/h 3.7 km/h 64% 0.0 mm CLR
01:25 14.4 °C 7.7 °C 1002.9 hPa SSE 3.2 km/h   64% 0.0 mm CLR
01:30 14.4 °C 7.9 °C 1002.9 hPa SSE 2.3 km/h 7.4 km/h 65% 0.0 mm CLR
01:35 14.4 °C 7.7 °C 1002.8 hPa South 2.3 km/h 7.4 km/h 64% 0.0 mm CLR
01:40 14.4 °C 7.9 °C 1002.8 hPa South 4.7 km/h 3.7 km/h 65% 0.0 mm CLR
01:45 14.4 °C 7.9 °C 1002.8 hPa South 4.7 km/h   65% 0.0 mm CLR
01:50 14.4 °C 7.9 °C 1002.6 hPa NNW 2.3 km/h 5.6 km/h 65% 0.0 mm CLR
01:55 14.3 °C 7.8 °C 1002.6 hPa NNW 2.3 km/h   65% 0.0 mm CLR
02:00 14.2 °C 7.9 °C 1002.6 hPa NNW 1.6 km/h 4.8 km/h 66% 0.0 mm CLR
02:05 14.1 °C 7.8 °C 1002.6 hPa North 2.3 km/h   66% 0.0 mm CLR
02:10 14.1 °C 8.1 °C 1002.6 hPa North 2.3 km/h   67% 0.0 mm CLR
02:15 14.0 °C 7.7 °C 1002.6 hPa NNE 2.3 km/h 5.6 km/h 66% 0.0 mm CLR
02:20 13.9 °C 7.9 °C 1002.7 hPa NNE 2.3 km/h 3.7 km/h 67% 0.0 mm CLR
02:25 13.9 °C 8.1 °C 1002.7 hPa NNE 2.3 km/h   68% 0.0 mm CLR
02:30 13.9 °C 8.1 °C 1002.7 hPa Calm     68% 0.0 mm CLR
02:35 13.9 °C 8.1 °C 1002.6 hPa Calm     68% 0.0 mm CLR
02:40 13.9 °C 8.1 °C 1002.6 hPa Calm   5.8 km/h 68% 0.0 mm CLR
02:45 13.9 °C 8.3 °C 1002.6 hPa Calm   5.6 km/h 69% 0.0 mm CLR
02:50 13.8 °C 8.2 °C 1002.5 hPa NNE 3.2 km/h 5.6 km/h 69% 0.0 mm CLR
02:55 13.7 °C 8.3 °C 1002.5 hPa NNE 3.2 km/h 5.6 km/h 70% 0.0 mm CLR
03:00 13.7 °C 8.3 °C 1002.5 hPa NNE 3.2 km/h 4.8 km/h 70% 0.0 mm CLR
03:05 13.6 °C 8.2 °C 1002.3 hPa NNE 3.2 km/h 5.8 km/h 70% 0.0 mm CLR
03:10 13.4 °C 8.2 °C 1002.3 hPa NNE 3.9 km/h 7.4 km/h 71% 0.0 mm CLR
03:15 13.3 °C 8.3 °C 1002.3 hPa NNE 3.9 km/h 7.4 km/h 72% 0.0 mm CLR
03:20 13.2 °C 8.3 °C 1002.2 hPa NNE 3.9 km/h 4.7 km/h 72% 0.0 mm CLR
03:25 13.1 °C 8.2 °C 1002.2 hPa NNE 3.9 km/h 5.8 km/h 72% 0.0 mm CLR
03:30 13.1 °C 8.4 °C 1002.2 hPa NNE 3.2 km/h 5.6 km/h 73% 0.0 mm CLR
03:35 12.9 °C 8.2 °C 1002.1 hPa NNE 3.2 km/h 5.6 km/h 73% 0.0 mm CLR
03:40 12.8 °C 8.3 °C 1002.1 hPa NNE 3.9 km/h 8.4 km/h 74% 0.0 mm CLR
03:45 12.7 °C 8.4 °C 1002.1 hPa NNE 3.9 km/h 5.6 km/h 75% 0.0 mm CLR
03:50 12.6 °C 8.3 °C 1001.9 hPa NNE 3.9 km/h 5.6 km/h 75% 0.0 mm CLR
03:55 12.4 °C 8.3 °C 1001.9 hPa NNE 3.9 km/h 3.7 km/h 76% 0.0 mm CLR
04:00 12.3 °C 8.2 °C 1001.9 hPa NNE 3.2 km/h 8.0 km/h 76% 0.0 mm CLR
04:05 12.2 °C 8.3 °C 1001.9 hPa NNE 2.9 km/h 5.6 km/h 77% 0.0 mm CLR
04:10 12.2 °C 8.3 °C 1001.9 hPa NNE 3.9 km/h 7.6 km/h 77% 0.0 mm CLR
04:15 12.1 °C 8.2 °C 1001.9 hPa NNE 3.9 km/h 6.4 km/h 77% 0.0 mm CLR
04:20 12.0 °C 8.3 °C 1001.7 hPa NNE 4.7 km/h 3.7 km/h 78% 0.0 mm CLR
04:25 11.9 °C 8.2 °C 1001.7 hPa NNE 4.7 km/h 3.7 km/h 78% 0.0 mm CLR
04:30 11.9 °C 8.2 °C 1001.7 hPa NNE 2.3 km/h 7.4 km/h 78% 0.0 mm CLR
04:35 11.8 °C 8.1 °C 1001.6 hPa NNE 2.3 km/h 3.7 km/h 78% 0.0 mm CLR
04:40 11.8 °C 8.3 °C 1001.6 hPa North 3.2 km/h 5.8 km/h 79% 0.0 mm CLR
04:45 11.8 °C 8.3 °C 1001.6 hPa North 3.2 km/h 3.9 km/h 79% 0.0 mm CLR
04:50 11.8 °C 8.3 °C 1001.7 hPa North 2.9 km/h 3.7 km/h 79% 0.0 mm CLR
04:55 11.8 °C 8.3 °C 1001.7 hPa North 2.9 km/h 4.7 km/h 79% 0.0 mm CLR
05:00 11.8 °C 8.3 °C 1001.7 hPa North 3.2 km/h 6.4 km/h 79% 0.0 mm CLR
05:05 11.8 °C 8.3 °C 1001.7 hPa NE 2.9 km/h 3.7 km/h 79% 0.0 mm CLR
05:10 11.8 °C 8.1 °C 1001.7 hPa NNE 2.3 km/h 7.4 km/h 78% 0.0 mm CLR
05:15 11.8 °C 8.1 °C 1001.7 hPa NNE 2.3 km/h 5.6 km/h 78% 0.0 mm CLR
05:20 11.8 °C 8.1 °C 1001.5 hPa NNE 3.9 km/h 7.4 km/h 78% 0.0 mm CLR
05:25 11.8 °C 8.1 °C 1001.5 hPa NE 3.9 km/h 7.4 km/h 78% 0.0 mm CLR
05:30 11.8 °C 8.1 °C 1001.5 hPa NE 3.9 km/h 6.4 km/h 78% 0.0 mm CLR
05:35 11.7 °C 8.2 °C 1001.4 hPa NE 3.9 km/h 9.3 km/h 79% 0.0 mm CLR
05:40 11.7 °C 8.2 °C 1001.4 hPa NE 5.8 km/h 7.4 km/h 79% 0.0 mm CLR
05:45 11.6 °C 8.1 °C 1001.4 hPa NE 5.8 km/h 7.4 km/h 79% 0.0 mm CLR
05:50 11.5 °C 8.2 °C 1001.2 hPa NE 3.9 km/h 7.4 km/h 80% 0.0 mm CLR
05:55 11.4 °C 8.1 °C 1001.2 hPa North 3.9 km/h 7.4 km/h 80% 0.0 mm CLR
06:00 11.3 °C 8.2 °C 1001.2 hPa NNE 3.2 km/h 6.4 km/h 81% 0.0 mm CLR
06:05 11.3 °C 8.2 °C 1001.3 hPa North 4.7 km/h 7.4 km/h 81% 0.0 mm CLR
06:10 11.3 °C 8.2 °C 1001.3 hPa NW 3.9 km/h 5.8 km/h 81% 0.0 mm CLR
06:15 11.4 °C 8.3 °C 1001.3 hPa NW 3.9 km/h 3.7 km/h 81% 0.0 mm CLR
06:20 11.4 °C 8.3 °C 1001.4 hPa WNW 3.2 km/h 7.4 km/h 81% 0.0 mm CLR
06:25 11.4 °C 8.3 °C 1001.4 hPa WNW 3.2 km/h 5.6 km/h 81% 0.0 mm CLR
06:30 11.5 °C 8.3 °C 1001.4 hPa WNW 3.9 km/h 3.7 km/h 81% 0.0 mm CLR
06:35 11.6 °C 8.3 °C 1001.6 hPa WNW 3.9 km/h   80% 0.0 mm CLR
06:40 11.7 °C 8.4 °C 1001.6 hPa Calm     80% 0.0 mm CLR
06:45 11.8 °C 8.4 °C 1001.6 hPa Calm   8.4 km/h 80% 0.0 mm CLR
06:50 11.8 °C 8.4 °C 1001.5 hPa SE 3.9 km/h 11.1 km/h 80% 0.0 mm CLR
06:55 11.7 °C 8.4 °C 1001.5 hPa SE 3.9 km/h 9.3 km/h 80% 0.0 mm CLR
07:00 11.7 °C 8.4 °C 1001.5 hPa SE 8.0 km/h 9.7 km/h 80% 0.0 mm CLR
07:05 11.7 °C 8.6 °C 1001.4 hPa SE 6.9 km/h 5.6 km/h 81% 0.0 mm CLR
07:10 11.6 °C 8.4 °C 1001.4 hPa SE 3.9 km/h   81% 0.0 mm CLR
07:15 11.6 °C 8.3 °C 1001.4 hPa SSW 3.9 km/h 7.4 km/h 80% 0.0 mm CLR
07:20 11.6 °C 8.3 °C 1001.5 hPa SW 3.2 km/h 3.7 km/h 80% 0.0 mm CLR
07:25 11.7 °C 8.4 °C 1001.5 hPa SW 3.2 km/h 7.4 km/h 80% 0.0 mm CLR
07:30 11.7 °C 8.4 °C 1001.5 hPa SW 3.9 km/h 5.6 km/h 80% 0.0 mm CLR
07:35 11.7 °C 8.2 °C 1001.4 hPa SW 3.9 km/h   79% 0.0 mm CLR
07:40 11.7 °C 8.4 °C 1001.4 hPa SW 2.9 km/h 3.7 km/h 80% 0.0 mm CLR
07:45 11.8 °C 8.3 °C 1001.4 hPa SW 2.9 km/h   79% 0.0 mm CLR
07:50 11.8 °C 8.3 °C 1001.4 hPa Calm   4.7 km/h 79% 0.0 mm CLR
07:55 11.8 °C 8.3 °C 1001.4 hPa Calm   6.4 km/h 79% 0.0 mm CLR
08:00 11.8 °C 8.3 °C 1001.4 hPa WSW 3.2 km/h 8.0 km/h 79% 0.0 mm CLR
08:05 11.8 °C 8.3 °C 1001.6 hPa West 3.2 km/h 5.6 km/h 79% 0.0 mm CLR
08:10 11.8 °C 8.3 °C 1001.6 hPa WSW 3.2 km/h 9.3 km/h 79% 0.0 mm CLR
08:15 11.8 °C 8.3 °C 1001.6 hPa WSW 3.2 km/h 7.4 km/h 79% 0.0 mm CLR
08:20 11.8 °C 8.3 °C 1001.7 hPa SW 5.0 km/h 5.6 km/h 79% 0.0 mm CLR
08:25 11.8 °C 8.1 °C 1001.7 hPa WSW 5.0 km/h 9.3 km/h 78% 0.0 mm CLR
08:30 11.8 °C 8.1 °C 1001.7 hPa SW 5.0 km/h 7.4 km/h 78% 0.0 mm CLR
08:35 11.9 °C 8.2 °C 1001.7 hPa SW 5.0 km/h 5.6 km/h 78% 0.0 mm CLR
08:40 12.0 °C 8.1 °C 1001.7 hPa SW 4.7 km/h 5.6 km/h 77% 0.0 mm CLR
08:45 12.2 °C 8.3 °C 1001.7 hPa SSW 4.7 km/h 7.4 km/h 77% 0.0 mm CLR
08:50 12.3 °C 8.2 °C 1001.5 hPa SSE 4.7 km/h 7.4 km/h 76% 0.0 mm CLR
08:55 12.4 °C 8.3 °C 1001.5 hPa SSE 4.7 km/h 11.1 km/h 76% 0.0 mm CLR
09:00 12.4 °C 8.3 °C 1001.5 hPa SSE 8.0 km/h 9.7 km/h 76% 0.0 mm CLR
09:05 12.4 °C 8.3 °C 1001.5 hPa SSW 6.4 km/h 11.1 km/h 76% 0.0 mm CLR
09:10 12.6 °C 8.5 °C 1001.5 hPa SW 6.4 km/h 9.3 km/h 76% 0.0 mm CLR
09:15 12.7 °C 8.4 °C 1001.5 hPa SW 6.4 km/h 7.4 km/h 75% 0.0 mm CLR
09:20 12.8 °C 8.3 °C 1001.5 hPa SW 6.4 km/h 7.4 km/h 74% 0.0 mm CLR
09:25 12.9 °C 8.4 °C 1001.5 hPa WSW 6.4 km/h 7.4 km/h 74% 0.0 mm CLR
09:30 12.8 °C 8.3 °C 1001.5 hPa WSW 5.0 km/h 7.4 km/h 74% 0.0 mm CLR
09:35 12.8 °C 8.3 °C 1001.6 hPa WSW 5.0 km/h 7.4 km/h 74% 0.0 mm CLR
09:40 12.9 °C 8.4 °C 1001.6 hPa West 5.0 km/h 5.6 km/h 74% 0.0 mm CLR
09:45 13.1 °C 8.4 °C 1001.6 hPa SW 5.0 km/h 11.1 km/h 73% 0.0 mm CLR
09:50 13.2 °C 8.4 °C 1001.6 hPa SW 5.8 km/h 8.4 km/h 73% 0.0 mm CLR
09:55 13.4 °C 8.4 °C 1001.6 hPa SW 5.8 km/h 11.1 km/h 72% 0.0 mm CLR
10:00 13.4 °C 8.4 °C 1001.6 hPa SW 8.0 km/h 11.3 km/h 72% 0.0 mm CLR
10:05 13.6 °C 8.7 °C 1001.5 hPa WSW 6.4 km/h 7.4 km/h 72% 0.0 mm CLR
10:10 13.8 °C 8.6 °C 1001.5 hPa SSE 4.7 km/h 11.1 km/h 71% 0.0 mm CLR
10:15 13.9 °C 8.5 °C 1001.5 hPa SSE 4.7 km/h 7.4 km/h 70% 0.0 mm CLR
10:20 14.1 °C 8.5 °C 1001.4 hPa SSW 6.4 km/h 9.3 km/h 69% 0.0 mm CLR
10:25 14.1 °C 8.5 °C 1001.4 hPa SW 6.4 km/h 5.6 km/h 69% 0.0 mm CLR
10:30 14.3 °C 8.7 °C 1001.4 hPa SSE 5.8 km/h 9.3 km/h 69% 0.0 mm CLR
10:35 14.4 °C 8.8 °C 1001.4 hPa ESE 5.8 km/h 7.4 km/h 69% 0.0 mm CLR
10:40 14.8 °C 8.7 °C 1001.4 hPa SSE 5.8 km/h 7.4 km/h 67% 0.0 mm CLR
10:45 15.0 °C 8.9 °C 1001.4 hPa ESE 5.8 km/h 7.4 km/h 67% 0.0 mm CLR
10:50 15.1 °C 8.6 °C 1001.5 hPa West 5.8 km/h 9.3 km/h 65% 0.0 mm CLR
10:55 15.1 °C 8.6 °C 1001.5 hPa SW 5.8 km/h 9.3 km/h 65% 0.0 mm CLR
11:00 15.2 °C 8.7 °C 1001.5 hPa SW 4.8 km/h 11.3 km/h 65% 0.0 mm CLR
11:05 15.1 °C 8.3 °C 1001.4 hPa ESE 5.8 km/h 7.4 km/h 64% 0.0 mm CLR
11:10 15.1 °C 8.1 °C 1001.4 hPa SSE 5.8 km/h 7.4 km/h 63% 0.0 mm CLR
11:15 15.2 °C 7.9 °C 1001.4 hPa ESE 5.8 km/h 7.4 km/h 62% 0.0 mm CLR
11:20 15.4 °C 7.4 °C 1001.4 hPa SSW 4.7 km/h 9.3 km/h 59% 0.0 mm CLR
11:25 15.7 °C 7.4 °C 1001.4 hPa NNW 4.7 km/h 5.0 km/h 58% 0.0 mm CLR
11:30 16.1 °C 7.6 °C 1001.4 hPa SE 2.9 km/h 9.3 km/h 57% 0.0 mm CLR
11:35 16.1 °C 7.1 °C 1001.2 hPa SSE 2.9 km/h 7.4 km/h 55% 0.0 mm CLR
11:40 16.1 °C 6.8 °C 1001.2 hPa South 5.8 km/h 7.4 km/h 54% 0.0 mm CLR
11:45 16.3 °C 6.4 °C 1001.2 hPa WNW 5.8 km/h 7.4 km/h 52% 0.0 mm CLR
11:50 16.4 °C 6.2 °C 1001.2 hPa WNW 4.7 km/h 7.4 km/h 51% 0.0 mm CLR
11:55 16.5 °C 6.3 °C 1001.2 hPa East 4.7 km/h 8.7 km/h 51% 0.0 mm CLR
12:00 16.8 °C 6.6 °C 1001.2 hPa NNE 3.2 km/h 9.7 km/h 51% 0.0 mm CLR
12:05 17.2 °C 5.4 °C 1000.9 hPa SSE 4.7 km/h 9.3 km/h 46% 0.0 mm CLR
12:10 17.3 °C 5.6 °C 1000.9 hPa WNW 4.7 km/h 7.4 km/h 46% 0.0 mm CLR
12:15 17.6 °C 5.8 °C 1000.9 hPa NE 4.7 km/h 5.6 km/h 46% 0.0 mm CLR
12:20 17.9 °C 5.4 °C 1000.6 hPa ENE 3.9 km/h 5.6 km/h 44% 0.0 mm CLR
12:25 17.9 °C 5.1 °C 1000.6 hPa SSE 3.9 km/h 11.1 km/h 43% 0.0 mm CLR
12:30 18.0 °C 5.9 °C 1000.6 hPa ESE 5.8 km/h 11.1 km/h 45% 0.0 mm CLR
12:35 18.1 °C 5.9 °C 1000.3 hPa SE 5.8 km/h 11.1 km/h 45% 0.0 mm CLR
12:40 18.1 °C 5.9 °C 1000.3 hPa West 7.6 km/h 5.6 km/h 45% 0.0 mm CLR
12:45 18.2 °C 6.1 °C 1000.3 hPa South 7.6 km/h 3.9 km/h 45% 0.0 mm CLR
12:50 18.3 °C 6.2 °C 1000.0 hPa SSE 5.0 km/h 11.1 km/h 45% 0.0 mm CLR
12:55 18.3 °C 6.5 °C 1000.0 hPa East 5.0 km/h 7.4 km/h 46% 0.0 mm CLR
13:00 18.6 °C 6.4 °C 1000.0 hPa ESE 4.8 km/h 16.1 km/h 45% 0.0 mm CLR
13:05 18.7 °C 4.8 °C 999.8 hPa ESE 5.8 km/h 29.6 km/h 40% 0.0 mm CLR
13:10 18.9 °C 4.6 °C 999.8 hPa SSW 13.7 km/h 24.1 km/h 39% 0.0 mm CLR
13:15 18.8 °C 4.9 °C 999.8 hPa SE 13.7 km/h 14.8 km/h 40% 0.0 mm CLR
13:20 18.8 °C 4.6 °C 999.5 hPa SSE 13.0 km/h 25.9 km/h 39% 0.0 mm CLR
13:25 18.6 °C 4.7 °C 999.5 hPa SE 13.0 km/h 20.4 km/h 40% 0.0 mm CLR
13:30 18.7 °C 5.2 °C 999.5 hPa SSE 13.7 km/h 31.5 km/h 41% 0.0 mm CLR
13:35 18.6 °C 5.1 °C 999.5 hPa SE 13.7 km/h 13.0 km/h 41% 0.0 mm CLR
13:40 18.9 °C 5.3 °C 999.5 hPa South 13.7 km/h 24.1 km/h 41% 0.0 mm CLR
13:45 19.2 °C 4.9 °C 999.5 hPa SSE 13.7 km/h 22.2 km/h 39% 0.0 mm CLR
13:50 19.2 °C 5.6 °C 999.2 hPa ESE 16.1 km/h 29.6 km/h 41% 0.0 mm CLR
13:55 19.0 °C 6.1 °C 999.2 hPa SSE 16.1 km/h 31.5 km/h 43% 0.0 mm CLR
14:00 18.9 °C 6.7 °C 999.2 hPa SE 20.9 km/h 35.4 km/h 45% 0.0 mm CLR
14:05 19.1 °C 6.2 °C 999.0 hPa South 20.9 km/h 27.8 km/h 43% 0.0 mm CLR
14:10 19.0 °C 6.8 °C 999.0 hPa SSE 19.0 km/h 28.2 km/h 45% 0.0 mm CLR
14:15 19.1 °C 6.2 °C 999.0 hPa SSE 19.0 km/h 22.2 km/h 43% 0.0 mm CLR
14:20 19.4 °C 4.3 °C 998.8 hPa SSE 18.0 km/h 28.2 km/h 37% 0.0 mm CLR
14:25 19.4 °C 4.3 °C 998.8 hPa ESE 18.0 km/h 22.2 km/h 37% 0.0 mm CLR
14:30 19.6 °C 4.1 °C 998.8 hPa SSE 18.0 km/h 33.3 km/h 36% 0.0 mm CLR
14:35 19.4 °C 3.9 °C 998.6 hPa SSE 18.0 km/h 29.6 km/h 36% 0.0 mm CLR
14:40 19.3 °C 4.2 °C 998.6 hPa SSE 22.0 km/h 33.3 km/h 37% 0.0 mm CLR
14:45 19.2 °C 4.2 °C 998.6 hPa South 22.0 km/h 35.2 km/h 37% 0.0 mm CLR
14:50 19.2 °C 4.5 °C 998.8 hPa SSE 20.9 km/h 46.3 km/h 38% 0.0 mm CLR
14:55 18.6 °C 4.4 °C 998.8 hPa SSW 20.9 km/h 29.6 km/h 39% 0.0 mm CLR
15:00 18.6 °C 4.7 °C 998.8 hPa SSE 27.4 km/h 37.0 km/h 40% 0.0 mm CLR
15:05 18.8 °C 5.3 °C 998.6 hPa South 27.0 km/h 37.0 km/h 41% 0.0 mm CLR
15:10 18.4 °C 5.9 °C 998.6 hPa SSE 20.9 km/h 37.0 km/h 44% 0.0 mm CLR
15:15 18.2 °C 5.7 °C 998.6 hPa SE 20.9 km/h 25.9 km/h 44% 0.0 mm CLR
15:20 18.3 °C 6.5 °C 998.6 hPa South 22.5 km/h 29.6 km/h 46% 0.0 mm CLR
15:25 18.4 °C 6.9 °C 998.6 hPa South 22.5 km/h 27.8 km/h 47% 0.0 mm CLR
15:30 18.4 °C 6.9 °C 998.6 hPa SSE 18.3 km/h 22.2 km/h 47% 0.0 mm CLR
15:35 18.3 °C 7.1 °C 998.6 hPa SSE 18.3 km/h 22.2 km/h 48% 0.0 mm CLR
15:40 18.3 °C 7.4 °C 998.6 hPa West 15.6 km/h 24.5 km/h 49% 0.0 mm CLR
15:45 17.1 °C 7.2 °C 998.6 hPa West 15.6 km/h 38.1 km/h 52% 0.0 mm CLR
15:50 15.4 °C 7.4 °C 999.1 hPa WNW 22.0 km/h 37.0 km/h 59% 0.5 mm RA
15:55 14.5 °C 6.8 °C 999.1 hPa West 22.0 km/h 40.7 km/h 60% 0.5 mm RA
16:00 14.2 °C 6.6 °C 999.1 hPa West 25.7 km/h 41.8 km/h 60% 0.0 mm
16:05 13.9 °C 6.3 °C 999.2 hPa West 25.1 km/h 40.7 km/h 60% 0.5 mm
16:10 13.7 °C 6.6 °C 999.2 hPa WSW 26.2 km/h 44.4 km/h 62% 0.8 mm RA
16:15 13.5 °C 6.8 °C 999.2 hPa SW 26.2 km/h 38.9 km/h 64% 1.0 mm RA
16:20 13.3 °C 7.1 °C 999.8 hPa SW 22.0 km/h 38.9 km/h 66% 1.3 mm RA
16:25 13.2 °C 7.4 °C 999.8 hPa NW 22.0 km/h 31.5 km/h 68% 1.3 mm RA
16:30 13.0 °C 7.7 °C 999.8 hPa West 20.1 km/h 33.3 km/h 70% 1.5 mm RA
16:35 12.8 °C 7.9 °C 1000.1 hPa SW 20.1 km/h 25.9 km/h 72% 1.8 mm RA
16:40 12.7 °C 8.2 °C 1000.1 hPa WSW 18.0 km/h 14.0 km/h 74% 2.0 mm RA
16:45 12.6 °C 8.3 °C 1000.1 hPa SW 18.0 km/h 24.1 km/h 75% 2.0 mm RA
16:50 12.6 °C 8.5 °C 999.9 hPa WNW 11.1 km/h 11.1 km/h 76% 1.5 mm
16:55 12.6 °C 8.7 °C 999.9 hPa SW 11.1 km/h 15.6 km/h 77% 1.8 mm RA
17:00 12.6 °C 8.7 °C 999.9 hPa WSW 9.7 km/h 19.3 km/h 77% 0.0 mm RA
17:05 12.6 °C 8.5 °C 1000.0 hPa WSW 10.0 km/h 14.8 km/h 76% 1.8 mm
17:10 12.7 °C 9.2 °C 1000.0 hPa SSW 8.4 km/h 14.8 km/h 79% 1.5 mm CLR
17:15 12.8 °C 8.9 °C 1000.0 hPa South 8.4 km/h 17.2 km/h 77% 1.3 mm CLR
17:20 12.7 °C 9.2 °C 999.7 hPa South 11.1 km/h 18.5 km/h 79% 1.0 mm CLR
17:25 12.7 °C 9.3 °C 999.7 hPa South 11.1 km/h 16.1 km/h 80% 1.0 mm CLR
17:30 12.6 °C 9.1 °C 999.7 hPa SSE 12.2 km/h 13.0 km/h 79% 0.8 mm CLR
17:35 12.6 °C 8.7 °C 999.3 hPa SW 12.2 km/h 14.8 km/h 77% 0.5 mm CLR
17:40 12.7 °C 9.2 °C 999.3 hPa ESE 7.6 km/h 11.1 km/h 79% 0.3 mm CLR
17:45 12.8 °C 8.7 °C 999.3 hPa SE 7.6 km/h 14.8 km/h 76% 0.3 mm CLR
17:50 12.9 °C 8.9 °C 998.1 hPa SE 8.7 km/h 14.8 km/h 77% 0.3 mm CLR
17:55 12.9 °C 8.6 °C 998.1 hPa SE 8.7 km/h 13.0 km/h 75% 0.0 mm CLR
18:00 13.0 °C 8.4 °C 998.1 hPa SE 9.7 km/h 11.3 km/h 74% 0.0 mm CLR
18:05 13.1 °C 8.6 °C 998.0 hPa SE 9.5 km/h 11.1 km/h 74% 0.0 mm CLR
18:10 13.2 °C 8.4 °C 998.0 hPa SE 7.6 km/h 7.4 km/h 73% 0.0 mm CLR
18:15 13.3 °C 8.3 °C 998.0 hPa South 7.6 km/h 9.3 km/h 72% 0.0 mm CLR
18:20 13.4 °C 8.1 °C 998.2 hPa SE 5.0 km/h 7.4 km/h 70% 0.0 mm CLR
18:25 13.5 °C 8.1 °C 998.2 hPa SSW 5.0 km/h 9.3 km/h 70% 0.0 mm CLR
18:30 13.6 °C 7.8 °C 998.2 hPa SSW 5.0 km/h 3.7 km/h 68% 0.0 mm CLR
18:35 13.7 °C 8.3 °C 998.8 hPa West 5.0 km/h 5.6 km/h 70% 0.0 mm CLR
18:40 13.8 °C 8.2 °C 998.8 hPa South 3.2 km/h 9.5 km/h 69% 0.0 mm CLR
18:45 14.0 °C 7.7 °C 998.8 hPa ESE 3.2 km/h 11.1 km/h 66% 0.0 mm CLR
18:50 14.2 °C 8.2 °C 998.5 hPa ENE 6.4 km/h   67% 0.0 mm CLR
18:55 14.3 °C 8.1 °C 998.5 hPa South 6.4 km/h 11.1 km/h 66% 0.0 mm CLR
19:00 14.4 °C 7.4 °C 998.5 hPa South 4.8 km/h 11.3 km/h 63% 0.0 mm CLR
19:05 14.6 °C 8.3 °C 998.4 hPa NW 5.8 km/h 7.4 km/h 66% 0.0 mm CLR
19:10 14.6 °C 9.0 °C 998.4 hPa NE 4.7 km/h 9.5 km/h 69% 0.0 mm CLR
19:15 14.4 °C 9.2 °C 998.4 hPa North 4.7 km/h 11.1 km/h 71% 0.0 mm CLR
19:20 14.2 °C 9.4 °C 998.5 hPa North 5.8 km/h 7.4 km/h 73% 0.0 mm CLR
19:25 14.0 °C 9.4 °C 998.5 hPa WNW 5.8 km/h 7.4 km/h 74% 0.0 mm CLR
19:30 13.9 °C 9.3 °C 998.5 hPa WNW 3.9 km/h 4.7 km/h 74% 0.0 mm CLR
19:35 13.9 °C 9.6 °C 998.6 hPa WNW 3.9 km/h 5.6 km/h 75% 0.0 mm CLR
19:40 13.9 °C 9.6 °C 998.6 hPa NNW 3.2 km/h 11.1 km/h 75% 0.0 mm CLR
19:45 13.7 °C 9.6 °C 998.6 hPa NE 3.2 km/h 7.4 km/h 76% 0.0 mm CLR
19:50 13.6 °C 9.4 °C 998.8 hPa ENE 5.8 km/h 7.6 km/h 76% 0.0 mm CLR
19:55 13.4 °C 9.3 °C 998.8 hPa NE 5.8 km/h 6.4 km/h 76% 0.0 mm CLR
20:00 13.3 °C 8.9 °C 998.8 hPa NE 4.8 km/h 12.9 km/h 75% 0.0 mm CLR
20:05 13.3 °C 9.3 °C 998.6 hPa NNW 5.8 km/h 9.3 km/h 77% 0.0 mm CLR
20:10 13.3 °C 9.2 °C 998.6 hPa NE 5.8 km/h 11.1 km/h 76% 0.0 mm CLR
20:15 13.3 °C 9.3 °C 998.6 hPa NNE 5.8 km/h 7.4 km/h 77% 0.0 mm CLR
20:20 13.3 °C 9.2 °C 998.9 hPa NNE 5.8 km/h 7.4 km/h 76% 0.0 mm CLR
20:25 13.3 °C 9.2 °C 998.9 hPa NNE 5.8 km/h 8.4 km/h 76% 0.0 mm CLR
20:30 13.3 °C 9.2 °C 998.9 hPa ENE 3.9 km/h 5.6 km/h 76% 0.0 mm CLR
20:35 13.3 °C 8.9 °C 999.0 hPa NNW 3.9 km/h 9.5 km/h 75% 0.0 mm CLR
20:40 13.3 °C 9.2 °C 999.0 hPa WNW 6.4 km/h 13.0 km/h 76% 0.0 mm CLR
20:45 13.3 °C 9.6 °C 999.0 hPa WNW 6.4 km/h 14.8 km/h 78% 0.0 mm CLR
20:50 13.1 °C 9.3 °C 999.8 hPa WNW 10.0 km/h 18.5 km/h 78% 0.0 mm CLR
20:55 13.1 °C 9.7 °C 999.8 hPa NW 10.0 km/h 8.7 km/h 80% 0.0 mm CLR
21:00 13.0 °C 9.4 °C 999.8 hPa NW 8.0 km/h 19.3 km/h 79% 0.0 mm CLR
21:05 13.0 °C 8.7 °C 1000.2 hPa West 7.6 km/h 10.3 km/h 75% 0.0 mm CLR
21:10 13.1 °C 8.2 °C 1000.2 hPa NW 8.4 km/h 17.2 km/h 72% 0.0 mm CLR
21:15 13.1 °C 7.6 °C 1000.2 hPa NW 8.4 km/h 14.8 km/h 69% 0.0 mm CLR
21:20 13.0 °C 6.8 °C 1000.5 hPa WNW 11.1 km/h 25.9 km/h 66% 0.0 mm CLR
21:25 12.7 °C 6.3 °C 1000.5 hPa West 11.1 km/h 24.1 km/h 65% 0.0 mm CLR
21:30 12.7 °C 6.1 °C 1000.5 hPa WNW 16.1 km/h 22.2 km/h 64% 0.0 mm CLR
21:35 12.6 °C 5.9 °C 1000.9 hPa WNW 16.1 km/h 27.0 km/h 64% 0.0 mm CLR
21:40 12.2 °C 5.6 °C 1000.9 hPa West 13.7 km/h 16.7 km/h 64% 0.0 mm CLR
21:45 11.9 °C 5.3 °C 1000.9 hPa WNW 13.7 km/h 14.8 km/h 64% 0.0 mm CLR
21:50 11.7 °C 5.1 °C 1001.1 hPa WNW 13.0 km/h 16.7 km/h 64% 0.0 mm CLR
21:55 11.7 °C 4.9 °C 1001.1 hPa West 13.0 km/h 16.7 km/h 63% 0.0 mm CLR
22:00 11.6 °C 4.8 °C 1001.1 hPa West 9.7 km/h 16.1 km/h 63% 0.0 mm CLR
22:05 11.7 °C 4.9 °C 1001.5 hPa WNW 8.7 km/h 7.4 km/h 63% 0.0 mm CLR
22:10 11.7 °C 4.9 °C 1001.5 hPa WSW 4.7 km/h 5.6 km/h 63% 0.0 mm CLR
22:15 11.7 °C 4.7 °C 1001.5 hPa SW 4.7 km/h 7.4 km/h 62% 0.0 mm CLR
22:20 11.8 °C 4.7 °C 1001.8 hPa WSW 4.7 km/h 9.5 km/h 62% 0.0 mm CLR
22:25 11.8 °C 4.7 °C 1001.8 hPa West 4.7 km/h 9.3 km/h 62% 0.0 mm CLR
22:30 11.8 °C 5.0 °C 1001.8 hPa WSW 6.4 km/h 5.6 km/h 63% 0.0 mm CLR
22:35 11.8 °C 5.0 °C 1002.3 hPa WNW 6.4 km/h 9.3 km/h 63% 0.0 mm CLR
22:40 11.8 °C 5.2 °C 1002.3 hPa NW 4.7 km/h 7.4 km/h 64% 0.0 mm CLR
22:45 11.7 °C 5.1 °C 1002.3 hPa WNW 4.7 km/h 7.4 km/h 64% 0.0 mm CLR
22:50 11.7 °C 5.3 °C 1002.2 hPa NW 5.0 km/h 5.8 km/h 65% 0.0 mm CLR
22:55 11.6 °C 5.2 °C 1002.2 hPa NNW 5.0 km/h 7.4 km/h 65% 0.0 mm CLR
23:00 11.4 °C 5.3 °C 1002.2 hPa NNW 3.2 km/h 6.4 km/h 66% 0.0 mm CLR
23:05 11.2 °C 5.3 °C 1002.4 hPa NW 3.9 km/h 5.6 km/h 67% 0.0 mm CLR
23:10 11.0 °C 5.1 °C 1002.4 hPa NW 3.2 km/h 9.3 km/h 67% 0.0 mm CLR
23:15 10.9 °C 5.2 °C 1002.4 hPa NW 3.2 km/h 9.3 km/h 68% 0.0 mm CLR
23:20 10.8 °C 5.1 °C 1002.5 hPa NW 5.0 km/h 11.1 km/h 68% 0.0 mm CLR
23:25 10.7 °C 5.1 °C 1002.5 hPa West 5.0 km/h 14.8 km/h 68% 0.0 mm CLR
23:30 10.7 °C 4.8 °C 1002.5 hPa West 8.7 km/h 13.0 km/h 67% 0.0 mm CLR
23:35 10.7 °C 4.8 °C 1002.4 hPa NW 8.7 km/h 13.0 km/h 67% 0.0 mm CLR
23:40 10.7 °C 4.8 °C 1002.4 hPa West 8.7 km/h 9.3 km/h 67% 0.0 mm CLR
23:45 10.7 °C 4.6 °C 1002.4 hPa WNW 8.7 km/h 9.3 km/h 66% 0.0 mm CLR
23:50 10.7 °C 4.6 °C 1002.5 hPa WNW 6.9 km/h 11.1 km/h 66% 0.0 mm CLR
23:55 10.6 °C 4.5 °C 1002.5 hPa NW 6.9 km/h 11.1 km/h 66% 0.0 mm CLR
Murcia-Puente Tocinos, España
Compliments of Weather Underground - 2.75 mb

La estación de MeteoMurcia.com, publica sus datos en los siguientes proyectos:

Weather Underground PWS IMURCIAP2 Meteoclimatic www.awekas.at

W3Counter
Web Analytics